When you browse on this site, cookies collect data to enhance your experience and personalize the content and advertising you see.
Visit our Privacy Policy to learn more. By continuing to use the site, you agree to this use of cookies and data.

Météo par heure à Veselovo

Ce jour, 6 Juillet, Lundi

Heure Température Précipitation Vent Pression Humidité
00:00 +19°C° 0 mm 3 m/s 743 mmHg 94%
01:00 +19°C° 0 mm 3 m/s 743 mmHg 94%
02:00 +19°C° 0 mm 3 m/s 743 mmHg 95%
03:00 +19°C° 0.1 mm 3 m/s 742 mmHg 95%
04:00 +19°C° 0.1 mm 3 m/s 742 mmHg 96%
05:00 +19°C° 0.1 mm 4 m/s 742 mmHg 96%
06:00 +20°C° 0 mm 4 m/s 742 mmHg 94%
07:00 +21°C° 0 mm 4 m/s 742 mmHg 92%
08:00 +21°C° 0 mm 4 m/s 742 mmHg 91%
09:00 +23°C° 0.5 mm 4 m/s 741 mmHg 87%
10:00 +25°C° 0.5 mm 5 m/s 741 mmHg 84%
11:00 +26°C° 0.5 mm 5 m/s 741 mmHg 80%
12:00 +26°C° 1 mm 5 m/s 741 mmHg 79%
13:00 +27°C° 1 mm 5 m/s 741 mmHg 79%
14:00 +27°C° 1 mm 4 m/s 740 mmHg 78%
15:00 +26°C° 1.3 mm 4 m/s 740 mmHg 81%
16:00 +26°C° 1.3 mm 3 m/s 740 mmHg 83%
17:00 +25°C° 1.3 mm 3 m/s 740 mmHg 86%
18:00 +24°C° 0.6 mm 3 m/s 740 mmHg 88%
19:00 +23°C° 0.6 mm 2 m/s 740 mmHg 89%
20:00 +21°C° 0.6 mm 2 m/s 740 mmHg 91%
21:00 +20°C° 0.1 mm 3 m/s 740 mmHg 91%
22:00 +19°C° 0.1 mm 3 m/s 740 mmHg 92%
23:00 +18°C° 0.1 mm 4 m/s 741 mmHg 92%

Demain, 7 Juillet, Mardi

Heure Température Précipitation Vent Pression Humidité
00:00 +17°C° 0.1 mm 3 m/s 741 mmHg 93%
01:00 +17°C° 0.1 mm 3 m/s 741 mmHg 95%
02:00 +16°C° 0.1 mm 3 m/s 741 mmHg 96%
03:00 +14°C° 0 mm 3 m/s 741 mmHg 95%
04:00 +14°C° 0 mm 3 m/s 742 mmHg 94%
05:00 +13°C° 0 mm 3 m/s 742 mmHg 93%
06:00 +14°C° 0.1 mm 3 m/s 742 mmHg 90%
07:00 +14°C° 0.1 mm 3 m/s 743 mmHg 88%
08:00 +14°C° 0.1 mm 4 m/s 743 mmHg 86%
09:00 +16°C° 0.1 mm 3 m/s 743 mmHg 82%
10:00 +17°C° 0.1 mm 3 m/s 743 mmHg 79%
11:00 +17°C° 0.1 mm 3 m/s 744 mmHg 75%
12:00 +17°C° 0.4 mm 3 m/s 744 mmHg 76%
13:00 +17°C° 0.4 mm 3 m/s 744 mmHg 77%
14:00 +17°C° 0.4 mm 3 m/s 744 mmHg 78%
15:00 +17°C° 0.3 mm 3 m/s 744 mmHg 78%
16:00 +17°C° 0.3 mm 3 m/s 744 mmHg 79%
17:00 +17°C° 0.3 mm 4 m/s 744 mmHg 80%
18:00 +15°C° 0.1 mm 4 m/s 744 mmHg 81%
19:00 +15°C° 0.1 mm 4 m/s 744 mmHg 83%
20:00 +14°C° 0.1 mm 3 m/s 744 mmHg 84%
21:00 +12°C° 0 mm 3 m/s 745 mmHg 86%
22:00 +11°C° 0 mm 3 m/s 745 mmHg 88%
23:00 +10°C° 0 mm 2 m/s 745 mmHg 89%

Après-demain, 8 Juillet, Mercredi

Heure Température Précipitation Vent Pression Humidité
00:00 +10°C° 0 mm 2 m/s 745 mmHg 91%
01:00 +9°C° 0 mm 2 m/s 745 mmHg 93%
02:00 +9°C° 0 mm 2 m/s 745 mmHg 95%
03:00 +9°C° 0 mm 3 m/s 745 mmHg 95%
04:00 +9°C° 0 mm 3 m/s 745 mmHg 96%
05:00 +9°C° 0 mm 3 m/s 746 mmHg 96%
06:00 +10°C° 0 mm 3 m/s 746 mmHg 89%
07:00 +12°C° 0 mm 3 m/s 746 mmHg 83%
08:00 +14°C° 0 mm 3 m/s 746 mmHg 76%
09:00 +15°C° 0 mm 4 m/s 746 mmHg 72%
10:00 +17°C° 0 mm 4 m/s 746 mmHg 67%
11:00 +19°C° 0 mm 4 m/s 746 mmHg 63%
12:00 +19°C° 0.1 mm 5 m/s 746 mmHg 62%
13:00 +19°C° 0.1 mm 5 m/s 746 mmHg 61%
14:00 +20°C° 0.1 mm 5 m/s 745 mmHg 60%
15:00 +19°C° 0.2 mm 4 m/s 745 mmHg 66%
16:00 +18°C° 0.2 mm 4 m/s 745 mmHg 71%
17:00 +17°C° 0.2 mm 4 m/s 745 mmHg 77%
18:00 +16°C° 0.5 mm 3 m/s 745 mmHg 83%
19:00 +13°C° 0.5 mm 3 m/s 746 mmHg 90%
20:00 +12°C° 0.5 mm 3 m/s 746 mmHg 96%
21:00 +12°C° 0.2 mm 3 m/s 746 mmHg 96%
22:00 +11°C° 0.2 mm 3 m/s 746 mmHg 97%
23:00 +11°C° 0.2 mm 3 m/s 746 mmHg 97%

9 Juillet, Jeudi

Heure Température Précipitation Vent Pression Humidité
00:00 +11°C° 0.1 mm 3 m/s 746 mmHg 97%
01:00 +11°C° 0.1 mm 3 m/s 746 mmHg 97%
02:00 +11°C° 0.1 mm 3 m/s 747 mmHg 97%
03:00 +11°C° 0 mm 3 m/s 747 mmHg 97%
04:00 +11°C° 0 mm 3 m/s 747 mmHg 97%
05:00 +11°C° 0 mm 3 m/s 747 mmHg 97%
06:00 +13°C° 0 mm 2 m/s 748 mmHg 94%
07:00 +13°C° 0 mm 2 m/s 748 mmHg 90%
08:00 +14°C° 0 mm 2 m/s 748 mmHg 86%
09:00 +14°C° 0.1 mm 3 m/s 749 mmHg 80%
10:00 +17°C° 0.1 mm 3 m/s 749 mmHg 74%
11:00 +18°C° 0.1 mm 3 m/s 749 mmHg 68%
12:00 +18°C° 0.2 mm 3 m/s 749 mmHg 66%
13:00 +19°C° 0.2 mm 4 m/s 749 mmHg 64%
14:00 +19°C° 0.2 mm 4 m/s 749 mmHg 62%
15:00 +19°C° 0.1 mm 4 m/s 749 mmHg 62%
16:00 +19°C° 0.1 mm 4 m/s 749 mmHg 62%
17:00 +19°C° 0.1 mm 3 m/s 749 mmHg 62%
18:00 +18°C° 0 mm 3 m/s 749 mmHg 69%
19:00 +17°C° 0 mm 2 m/s 749 mmHg 76%
20:00 +15°C° 0 mm 2 m/s 749 mmHg 82%
21:00 +14°C° 0 mm 2 m/s 749 mmHg 85%
22:00 +13°C° 0 mm 2 m/s 750 mmHg 88%
23:00 +12°C° 0 mm 1 m/s 750 mmHg 90%

10 Juillet, Vendredi

Heure Température Précipitation Vent Pression Humidité
00:00 +12°C° 0 mm 1 m/s 750 mmHg 91%
01:00 +11°C° 0 mm 1 m/s 750 mmHg 91%
02:00 +11°C° 0 mm 1 m/s 750 mmHg 91%
03:00 +11°C° 0 mm 1 m/s 750 mmHg 91%
04:00 +11°C° 0 mm 1 m/s 750 mmHg 90%
05:00 +11°C° 0 mm 1 m/s 750 mmHg 90%
06:00 +13°C° 0 mm 1 m/s 750 mmHg 85%
07:00 +15°C° 0 mm 2 m/s 750 mmHg 80%
08:00 +17°C° 0 mm 2 m/s 750 mmHg 74%
09:00 +18°C° 0 mm 2 m/s 750 mmHg 70%
10:00 +19°C° 0 mm 3 m/s 749 mmHg 66%
11:00 +20°C° 0 mm 4 m/s 749 mmHg 62%
12:00 +21°C° 0 mm 4 m/s 749 mmHg 61%
13:00 +22°C° 0 mm 4 m/s 748 mmHg 60%
14:00 +22°C° 0 mm 5 m/s 748 mmHg 59%
15:00 +22°C° 0 mm 4 m/s 747 mmHg 63%
16:00 +22°C° 0 mm 4 m/s 747 mmHg 66%
17:00 +22°C° 0 mm 4 m/s 746 mmHg 70%
18:00 +21°C° 0 mm 4 m/s 745 mmHg 73%
19:00 +20°C° 0 mm 5 m/s 745 mmHg 77%
20:00 +19°C° 0 mm 5 m/s 744 mmHg 81%
21:00 +19°C° 1.4 mm 5 m/s 744 mmHg 86%
22:00 +19°C° 1.4 mm 5 m/s 744 mmHg 91%
23:00 +19°C° 1.4 mm 5 m/s 743 mmHg 95%

11 Juillet, Samedi

Heure Température Précipitation Vent Pression Humidité
00:00 +17°C° 1.4 mm 5 m/s 744 mmHg 96%
01:00 +18°C° 1.4 mm 4 m/s 744 mmHg 96%
02:00 +18°C° 1.4 mm 4 m/s 744 mmHg 96%
03:00 +15°C° 0 mm 4 m/s 744 mmHg 95%
04:00 +14°C° 0 mm 3 m/s 745 mmHg 94%
05:00 +12°C° 0 mm 3 m/s 745 mmHg 92%
06:00 +13°C° 0 mm 4 m/s 746 mmHg 86%
07:00 +14°C° 0 mm 5 m/s 746 mmHg 80%
08:00 +14°C° 0 mm 6 m/s 746 mmHg 73%
09:00 +15°C° 0 mm 6 m/s 747 mmHg 69%
10:00 +16°C° 0 mm 7 m/s 747 mmHg 65%
11:00 +17°C° 0 mm 7 m/s 747 mmHg 62%
12:00 +17°C° 0 mm 7 m/s 747 mmHg 63%
13:00 +17°C° 0 mm 7 m/s 747 mmHg 64%
14:00 +17°C° 0 mm 6 m/s 747 mmHg 65%
15:00 +17°C° 0 mm 6 m/s 747 mmHg 66%
16:00 +17°C° 0 mm 6 m/s 747 mmHg 67%
17:00 +17°C° 0 mm 6 m/s 747 mmHg 67%
18:00 +16°C° 0 mm 6 m/s 747 mmHg 70%
19:00 +15°C° 0 mm 5 m/s 747 mmHg 73%
20:00 +13°C° 0 mm 5 m/s 747 mmHg 76%
21:00 +12°C° 0 mm 5 m/s 747 mmHg 75%
22:00 +12°C° 0 mm 5 m/s 747 mmHg 74%
23:00 +10°C° 0 mm 5 m/s 748 mmHg 72%
Voir plus